date,time,SUV Intensity [MED/Hr],UV Index,Daily total [MED],Since Last [MED]
02/01/2022,00:03:00,-0.000,0.0,0.0,0.0
02/01/2022,00:04:00,-0.000,0.0,0.0,0.0
02/01/2022,00:05:00,0.000,0.0,0.0,0.0
02/01/2022,00:05:59,0.000,0.0,0.0,0.0
02/01/2022,00:07:08,-0.000,0.0,0.0,0.0
02/01/2022,00:07:58,0.001,0.0,0.0,0.0
02/01/2022,00:08:59,0.000,0.0,0.0,0.0
02/01/2022,00:09:59,0.001,0.0,0.0,0.0
02/01/2022,00:11:00,0.000,0.0,0.0,0.0
02/01/2022,00:12:00,0.000,0.0,0.0,0.0
02/01/2022,00:13:00,0.001,0.0,0.0,0.0
02/01/2022,00:13:59,0.000,0.0,0.0,0.0
02/01/2022,00:15:00,-0.001,0.0,0.0,0.0
02/01/2022,00:15:59,0.000,0.0,0.0,0.0
02/01/2022,00:16:59,0.000,0.0,0.0,0.0
02/01/2022,00:18:00,0.000,0.0,0.0,0.0
02/01/2022,00:18:59,0.000,0.0,0.0,0.0
02/01/2022,00:20:08,0.000,0.0,0.0,0.0
02/01/2022,00:21:00,0.000,0.0,0.0,0.0
02/01/2022,00:23:00,0.000,0.0,0.0,0.0
02/01/2022,00:24:00,0.001,0.0,0.0,0.0
02/01/2022,00:25:00,-0.001,0.0,0.0,0.0
02/01/2022,00:26:07,-0.001,0.0,0.0,0.0
02/01/2022,00:27:00,0.000,0.0,0.0,0.0
02/01/2022,00:28:00,0.001,0.0,0.0,0.0
02/01/2022,00:29:00,0.000,0.0,0.0,0.0
02/01/2022,00:29:59,0.000,0.0,0.0,0.0
02/01/2022,00:30:59,-0.001,0.0,0.0,0.0
02/01/2022,00:32:00,0.000,0.0,0.0,0.0
02/01/2022,00:32:59,0.000,0.0,0.0,0.0
02/01/2022,00:33:59,-0.001,0.0,0.0,0.0
02/01/2022,00:35:00,0.000,0.0,0.0,0.0
02/01/2022,00:35:59,0.000,0.0,0.0,0.0
02/01/2022,00:36:59,0.000,0.0,0.0,0.0
02/01/2022,00:37:59,0.000,0.0,0.0,0.0
02/01/2022,00:38:59,0.001,0.0,0.0,0.0
02/01/2022,00:40:00,0.000,0.0,0.0,0.0
02/01/2022,00:41:08,0.000,0.0,0.0,0.0
02/01/2022,00:41:58,0.000,0.0,0.0,0.0
02/01/2022,00:43:00,0.000,0.0,0.0,0.0
02/01/2022,00:43:59,0.000,0.0,0.0,0.0
02/01/2022,00:45:00,0.000,0.0,0.0,0.0
02/01/2022,00:46:00,0.001,0.0,0.0,0.0
02/01/2022,00:46:59,0.001,0.0,0.0,0.0
02/01/2022,00:48:00,-0.001,0.0,0.0,0.0
02/01/2022,00:49:00,0.000,0.0,0.0,0.0
02/01/2022,00:49:59,0.000,0.0,0.0,0.0
02/01/2022,00:51:08,0.000,0.0,0.0,0.0
02/01/2022,00:51:58,0.000,0.0,0.0,0.0
02/01/2022,00:53:00,-0.001,0.0,0.0,0.0
02/01/2022,00:54:00,0.000,0.0,0.0,0.0
02/01/2022,00:54:59,0.000,0.0,0.0,0.0
02/01/2022,00:56:00,-0.001,0.0,0.0,0.0
02/01/2022,00:57:07,-0.001,0.0,0.0,0.0
02/01/2022,00:58:00,0.000,0.0,0.0,0.0
02/01/2022,00:59:00,0.000,0.0,0.0,0.0
02/01/2022,01:00:09,0.000,0.0,0.0,0.0
02/01/2022,01:00:58,-0.000,0.0,0.0,0.0
02/01/2022,01:01:59,-0.000,0.0,0.0,0.0
02/01/2022,01:03:00,-0.000,0.0,0.0,0.0
02/01/2022,01:03:59,-0.001,0.0,0.0,0.0
02/01/2022,01:05:00,0.000,0.0,0.0,0.0
02/01/2022,01:06:00,0.000,0.0,0.0,0.0
02/01/2022,01:06:59,-0.000,0.0,0.0,0.0
02/01/2022,01:08:00,-0.001,0.0,0.0,0.0
02/01/2022,01:09:00,0.000,0.0,0.0,0.0
02/01/2022,01:10:07,0.000,0.0,0.0,0.0
02/01/2022,01:11:00,-0.001,0.0,0.0,0.0
02/01/2022,01:12:00,-0.001,0.0,0.0,0.0
02/01/2022,01:13:09,0.000,0.0,0.0,0.0
02/01/2022,01:13:59,0.000,0.0,0.0,0.0
02/01/2022,01:15:00,0.000,0.0,0.0,0.0
02/01/2022,01:16:08,0.001,0.0,0.0,0.0
02/01/2022,01:16:58,-0.001,0.0,0.0,0.0
02/01/2022,01:18:00,0.001,0.0,0.0,0.0
02/01/2022,01:19:00,0.001,0.0,0.0,0.0
02/01/2022,01:19:59,-0.001,0.0,0.0,0.0
02/01/2022,01:20:59,-0.001,0.0,0.0,0.0
02/01/2022,01:22:00,0.000,0.0,0.0,0.0
02/01/2022,01:23:00,0.001,0.0,0.0,0.0
02/01/2022,01:23:59,-0.001,0.0,0.0,0.0
02/01/2022,01:25:00,0.000,0.0,0.0,0.0
02/01/2022,01:25:59,-0.001,0.0,0.0,0.0
02/01/2022,01:27:00,-0.001,0.0,0.0,0.0
02/01/2022,01:28:00,0.000,0.0,0.0,0.0
02/01/2022,01:28:59,0.000,0.0,0.0,0.0
02/01/2022,01:30:00,0.000,0.0,0.0,0.0
02/01/2022,01:31:00,0.001,0.0,0.0,0.0
02/01/2022,01:32:07,-0.001,0.0,0.0,0.0
02/01/2022,01:32:59,0.000,0.0,0.0,0.0
02/01/2022,01:34:00,0.001,0.0,0.0,0.0
02/01/2022,01:35:00,0.001,0.0,0.0,0.0
02/01/2022,01:36:00,0.001,0.0,0.0,0.0
02/01/2022,01:36:59,-0.000,0.0,0.0,0.0
02/01/2022,01:37:59,0.000,0.0,0.0,0.0
02/01/2022,01:39:00,0.000,0.0,0.0,0.0
02/01/2022,01:39:59,-0.001,0.0,0.0,0.0
02/01/2022,01:41:00,0.000,0.0,0.0,0.0
02/01/2022,01:42:00,0.001,0.0,0.0,0.0
02/01/2022,01:42:59,0.000,0.0,0.0,0.0
02/01/2022,01:44:00,0.000,0.0,0.0,0.0
02/01/2022,01:45:08,0.000,0.0,0.0,0.0
02/01/2022,01:46:00,-0.001,0.0,0.0,0.0
02/01/2022,01:47:08,0.000,0.0,0.0,0.0
02/01/2022,01:48:00,0.000,0.0,0.0,0.0
02/01/2022,01:49:00,-0.001,0.0,0.0,0.0
02/01/2022,01:49:59,0.000,0.0,0.0,0.0
02/01/2022,01:51:00,0.000,0.0,0.0,0.0
02/01/2022,01:52:00,-0.000,0.0,0.0,0.0
02/01/2022,01:53:00,-0.000,0.0,0.0,0.0
02/01/2022,01:54:00,0.000,0.0,0.0,0.0
02/01/2022,01:55:00,0.001,0.0,0.0,0.0
02/01/2022,01:55:59,0.000,0.0,0.0,0.0
02/01/2022,01:57:00,-0.001,0.0,0.0,0.0
02/01/2022,01:58:00,-0.001,0.0,0.0,0.0
02/01/2022,01:59:00,-0.000,0.0,0.0,0.0
02/01/2022,01:59:59,0.000,0.0,0.0,0.0
02/01/2022,02:01:01,-0.001,0.0,0.0,0.0
02/01/2022,02:01:59,-0.001,0.0,0.0,0.0
02/01/2022,02:03:09,0.000,0.0,0.0,0.0
02/01/2022,02:03:58,-0.001,0.0,0.0,0.0
02/01/2022,02:05:00,0.001,0.0,0.0,0.0
02/01/2022,02:06:08,0.001,0.0,0.0,0.0
02/01/2022,02:06:58,0.000,0.0,0.0,0.0
02/01/2022,02:08:00,0.000,0.0,0.0,0.0
02/01/2022,02:08:59,-0.001,0.0,0.0,0.0
02/01/2022,02:10:00,0.000,0.0,0.0,0.0
02/01/2022,02:11:00,0.000,0.0,0.0,0.0
02/01/2022,02:12:00,-0.000,0.0,0.0,0.0
02/01/2022,02:13:00,0.000,0.0,0.0,0.0
02/01/2022,02:13:59,0.000,0.0,0.0,0.0
02/01/2022,02:14:59,0.000,0.0,0.0,0.0
02/01/2022,02:16:00,0.001,0.0,0.0,0.0
02/01/2022,02:16:59,0.001,0.0,0.0,0.0
02/01/2022,02:18:00,-0.001,0.0,0.0,0.0
02/01/2022,02:19:07,-0.001,0.0,0.0,0.0
02/01/2022,02:19:59,0.000,0.0,0.0,0.0
02/01/2022,02:21:00,0.000,0.0,0.0,0.0
02/01/2022,02:22:00,-0.001,0.0,0.0,0.0
02/01/2022,02:23:00,0.000,0.0,0.0,0.0
02/01/2022,02:24:00,0.000,0.0,0.0,0.0
02/01/2022,02:24:59,0.000,0.0,0.0,0.0
02/01/2022,02:26:00,0.000,0.0,0.0,0.0
02/01/2022,02:26:59,-0.001,0.0,0.0,0.0
02/01/2022,02:27:59,0.000,0.0,0.0,0.0
02/01/2022,02:29:16,0.000,0.0,0.0,0.0
02/01/2022,02:31:00,-0.001,0.0,0.0,0.0
02/01/2022,02:32:00,0.000,0.0,0.0,0.0
02/01/2022,02:33:00,0.000,0.0,0.0,0.0
02/01/2022,02:34:00,0.000,0.0,0.0,0.0
02/01/2022,02:35:00,0.000,0.0,0.0,0.0
02/01/2022,02:35:59,0.001,0.0,0.0,0.0
02/01/2022,02:37:00,0.000,0.0,0.0,0.0
02/01/2022,02:38:08,0.000,0.0,0.0,0.0
02/01/2022,02:38:59,0.001,0.0,0.0,0.0
02/01/2022,02:40:00,-0.001,0.0,0.0,0.0
02/01/2022,02:41:00,0.000,0.0,0.0,0.0
02/01/2022,02:41:59,0.000,0.0,0.0,0.0
02/01/2022,02:43:00,0.001,0.0,0.0,0.0
02/01/2022,02:44:00,0.001,0.0,0.0,0.0
02/01/2022,02:45:00,0.000,0.0,0.0,0.0
02/01/2022,02:46:00,-0.001,0.0,0.0,0.0
02/01/2022,02:46:59,-0.000,0.0,0.0,0.0
02/01/2022,02:48:00,-0.000,0.0,0.0,0.0
02/01/2022,02:49:00,0.000,0.0,0.0,0.0
02/01/2022,02:49:59,0.000,0.0,0.0,0.0
02/01/2022,02:51:00,0.000,0.0,0.0,0.0
02/01/2022,02:52:00,0.000,0.0,0.0,0.0
02/01/2022,02:53:08,0.000,0.0,0.0,0.0
02/01/2022,02:53:58,-0.000,0.0,0.0,0.0
02/01/2022,02:55:00,0.000,0.0,0.0,0.0
02/01/2022,02:56:09,-0.000,0.0,0.0,0.0
02/01/2022,02:56:58,0.000,0.0,0.0,0.0
02/01/2022,02:57:59,0.001,0.0,0.0,0.0
02/01/2022,02:58:59,0.000,0.0,0.0,0.0
02/01/2022,03:00:00,0.000,0.0,0.0,0.0
02/01/2022,03:01:00,0.000,0.0,0.0,0.0
02/01/2022,03:01:59,-0.000,0.0,0.0,0.0
02/01/2022,03:03:00,0.001,0.0,0.0,0.0
02/01/2022,03:04:00,0.001,0.0,0.0,0.0
02/01/2022,03:05:00,0.000,0.0,0.0,0.0
02/01/2022,03:06:00,0.001,0.0,0.0,0.0
02/01/2022,03:06:59,0.000,0.0,0.0,0.0
02/01/2022,03:08:00,0.001,0.0,0.0,0.0
02/01/2022,03:09:01,0.000,0.0,0.0,0.0
02/01/2022,03:10:00,-0.001,0.0,0.0,0.0
02/01/2022,03:11:00,0.000,0.0,0.0,0.0
02/01/2022,03:12:00,0.000,0.0,0.0,0.0
02/01/2022,03:13:00,-0.000,0.0,0.0,0.0
02/01/2022,03:13:59,0.001,0.0,0.0,0.0
02/01/2022,03:15:08,-0.001,0.0,0.0,0.0
02/01/2022,03:16:00,-0.001,0.0,0.0,0.0
02/01/2022,03:17:00,-0.001,0.0,0.0,0.0
02/01/2022,03:18:00,0.001,0.0,0.0,0.0
02/01/2022,03:19:01,0.000,0.0,0.0,0.0
02/01/2022,03:20:01,-0.001,0.0,0.0,0.0
02/01/2022,03:20:59,0.000,0.0,0.0,0.0
02/01/2022,03:22:00,-0.000,0.0,0.0,0.0
02/01/2022,03:23:00,-0.001,0.0,0.0,0.0
02/01/2022,03:23:59,0.000,0.0,0.0,0.0
02/01/2022,03:25:00,0.000,0.0,0.0,0.0
02/01/2022,03:26:00,-0.000,0.0,0.0,0.0
02/01/2022,03:26:59,-0.000,0.0,0.0,0.0
02/01/2022,03:28:01,-0.000,0.0,0.0,0.0
02/01/2022,03:29:08,0.001,0.0,0.0,0.0
02/01/2022,03:29:58,0.000,0.0,0.0,0.0
02/01/2022,03:31:08,0.000,0.0,0.0,0.0
02/01/2022,03:32:00,0.000,0.0,0.0,0.0
02/01/2022,03:32:59,0.002,0.0,0.0,0.0
02/01/2022,03:34:08,0.001,0.0,0.0,0.0
02/01/2022,03:35:00,-0.000,0.0,0.0,0.0
02/01/2022,03:36:00,0.000,0.0,0.0,0.0
02/01/2022,03:37:08,0.001,0.0,0.0,0.0
02/01/2022,03:38:01,0.000,0.0,0.0,0.0
02/01/2022,03:39:01,0.000,0.0,0.0,0.0
02/01/2022,03:40:00,0.000,0.0,0.0,0.0
02/01/2022,03:41:00,0.000,0.0,0.0,0.0
02/01/2022,03:41:59,0.000,0.0,0.0,0.0
02/01/2022,03:43:00,0.000,0.0,0.0,0.0
02/01/2022,03:43:59,0.000,0.0,0.0,0.0
02/01/2022,03:45:00,0.000,0.0,0.0,0.0
02/01/2022,03:45:59,0.000,0.0,0.0,0.0
02/01/2022,03:47:00,0.000,0.0,0.0,0.0
02/01/2022,03:48:00,0.000,0.0,0.0,0.0
02/01/2022,03:49:01,0.000,0.0,0.0,0.0
02/01/2022,03:50:09,0.000,0.0,0.0,0.0
02/01/2022,03:50:58,-0.001,0.0,0.0,0.0
02/01/2022,03:52:00,0.000,0.0,0.0,0.0
02/01/2022,03:53:08,0.000,0.0,0.0,0.0
02/01/2022,03:54:00,0.000,0.0,0.0,0.0
02/01/2022,03:55:01,-0.001,0.0,0.0,0.0
02/01/2022,03:56:00,0.000,0.0,0.0,0.0
02/01/2022,03:57:00,0.000,0.0,0.0,0.0
02/01/2022,03:58:00,-0.001,0.0,0.0,0.0
02/01/2022,03:59:00,0.001,0.0,0.0,0.0
02/01/2022,04:00:00,0.000,0.0,0.0,0.0
02/01/2022,04:01:01,0.001,0.0,0.0,0.0
02/01/2022,04:01:59,-0.001,0.0,0.0,0.0
02/01/2022,04:03:00,-0.001,0.0,0.0,0.0
02/01/2022,04:04:00,-0.000,0.0,0.0,0.0
02/01/2022,04:05:00,0.000,0.0,0.0,0.0
02/01/2022,04:06:00,0.001,0.0,0.0,0.0
02/01/2022,04:07:00,0.001,0.0,0.0,0.0
02/01/2022,04:08:00,0.001,0.0,0.0,0.0
02/01/2022,04:09:00,-0.001,0.0,0.0,0.0
02/01/2022,04:10:00,0.001,0.0,0.0,0.0
02/01/2022,04:10:59,0.001,0.0,0.0,0.0
02/01/2022,04:12:08,-0.001,0.0,0.0,0.0
02/01/2022,04:13:00,0.000,0.0,0.0,0.0
02/01/2022,04:14:00,0.001,0.0,0.0,0.0
02/01/2022,04:15:10,0.001,0.0,0.0,0.0
02/01/2022,04:17:01,0.000,0.0,0.0,0.0
02/01/2022,04:18:00,0.000,0.0,0.0,0.0
02/01/2022,04:19:00,0.001,0.0,0.0,0.0
02/01/2022,04:20:01,0.001,0.0,0.0,0.0
02/01/2022,04:21:00,0.000,0.0,0.0,0.0
02/01/2022,04:22:00,0.000,0.0,0.0,0.0
02/01/2022,04:23:00,0.000,0.0,0.0,0.0
02/01/2022,04:24:00,0.000,0.0,0.0,0.0
02/01/2022,04:25:00,0.000,0.0,0.0,0.0
02/01/2022,04:26:00,0.000,0.0,0.0,0.0
02/01/2022,04:27:01,-0.001,0.0,0.0,0.0
02/01/2022,04:28:08,0.000,0.0,0.0,0.0
02/01/2022,04:28:59,0.000,0.0,0.0,0.0
02/01/2022,04:30:00,0.001,0.0,0.0,0.0
02/01/2022,04:31:01,0.000,0.0,0.0,0.0
02/01/2022,04:31:59,0.000,0.0,0.0,0.0
02/01/2022,04:34:02,0.001,0.0,0.0,0.0
02/01/2022,04:35:00,0.000,0.0,0.0,0.0
02/01/2022,04:36:00,-0.000,0.0,0.0,0.0
02/01/2022,04:37:00,-0.000,0.0,0.0,0.0
02/01/2022,04:38:01,0.000,0.0,0.0,0.0
02/01/2022,04:38:59,-0.000,0.0,0.0,0.0
02/01/2022,04:40:00,0.000,0.0,0.0,0.0
02/01/2022,04:41:00,0.000,0.0,0.0,0.0
02/01/2022,04:42:00,0.000,0.0,0.0,0.0
02/01/2022,04:42:59,0.000,0.0,0.0,0.0
02/01/2022,04:44:00,0.000,0.0,0.0,0.0
02/01/2022,04:45:00,0.000,0.0,0.0,0.0
02/01/2022,04:46:00,0.001,0.0,0.0,0.0
02/01/2022,04:47:00,0.000,0.0,0.0,0.0
02/01/2022,04:48:00,0.000,0.0,0.0,0.0
02/01/2022,04:49:09,0.000,0.0,0.0,0.0
02/01/2022,04:50:01,-0.000,0.0,0.0,0.0
02/01/2022,04:51:00,0.000,0.0,0.0,0.0
02/01/2022,04:52:08,0.000,0.0,0.0,0.0
02/01/2022,04:52:58,0.000,0.0,0.0,0.0
02/01/2022,04:54:00,-0.001,0.0,0.0,0.0
02/01/2022,04:55:01,0.001,0.0,0.0,0.0
02/01/2022,04:56:00,0.000,0.0,0.0,0.0
02/01/2022,04:57:01,0.000,0.0,0.0,0.0
02/01/2022,04:58:00,-0.000,0.0,0.0,0.0
02/01/2022,04:59:00,0.001,0.0,0.0,0.0
02/01/2022,05:00:00,0.000,0.0,0.0,0.0
02/01/2022,05:01:00,0.000,0.0,0.0,0.0
02/01/2022,05:02:09,0.001,0.0,0.0,0.0
02/01/2022,05:03:00,0.001,0.0,0.0,0.0
02/01/2022,05:04:00,0.002,0.0,0.0,0.0
02/01/2022,05:05:00,0.000,0.0,0.0,0.0
02/01/2022,05:06:00,0.001,0.0,0.0,0.0
02/01/2022,05:07:01,0.001,0.0,0.0,0.0
02/01/2022,05:08:09,0.000,0.0,0.0,0.0
02/01/2022,05:08:59,0.001,0.0,0.0,0.0
02/01/2022,05:10:00,0.000,0.0,0.0,0.0
02/01/2022,05:11:09,0.001,0.0,0.0,0.0
02/01/2022,05:12:00,0.001,0.0,0.0,0.0
02/01/2022,05:13:00,0.001,0.0,0.0,0.0
02/01/2022,05:13:59,0.000,0.0,0.0,0.0
02/01/2022,05:15:00,0.001,0.0,0.0,0.0
02/01/2022,05:16:00,0.000,0.0,0.0,0.0
02/01/2022,05:17:00,0.001,0.0,0.0,0.0
02/01/2022,05:18:00,0.001,0.0,0.0,0.0
02/01/2022,05:19:01,0.001,0.0,0.0,0.0
02/01/2022,05:20:00,-0.000,0.0,0.0,0.0
02/01/2022,05:21:00,0.001,0.0,0.0,0.0
02/01/2022,05:22:00,0.001,0.0,0.0,0.0
02/01/2022,05:23:01,0.001,0.0,0.0,0.0
02/01/2022,05:24:08,0.001,0.0,0.0,0.0
02/01/2022,05:25:00,0.000,0.0,0.0,0.0
02/01/2022,05:26:01,0.000,0.0,0.0,0.0
02/01/2022,05:27:09,0.001,0.0,0.0,0.0
02/01/2022,05:27:58,0.001,0.0,0.0,0.0
02/01/2022,05:29:01,0.001,0.0,0.0,0.0
02/01/2022,05:30:00,0.001,0.0,0.0,0.0
02/01/2022,05:31:01,-0.000,0.0,0.0,0.0
02/01/2022,05:32:00,-0.000,0.0,0.0,0.0
02/01/2022,05:33:00,0.001,0.0,0.0,0.0
02/01/2022,05:34:00,0.001,0.0,0.0,0.0
02/01/2022,05:35:00,0.001,0.0,0.0,0.0
02/01/2022,05:36:00,0.000,0.0,0.0,0.0
02/01/2022,05:37:08,0.001,0.0,0.0,0.0
02/01/2022,05:38:00,0.000,0.0,0.0,0.0
02/01/2022,05:39:09,0.001,0.0,0.0,0.0
02/01/2022,05:39:59,0.000,0.0,0.0,0.0
02/01/2022,05:41:00,0.000,0.0,0.0,0.0
02/01/2022,05:42:00,0.001,0.0,0.0,0.0
02/01/2022,05:43:00,0.000,0.0,0.0,0.0
02/01/2022,05:44:01,0.001,0.0,0.0,0.0
02/01/2022,05:45:00,0.001,0.0,0.0,0.0
02/01/2022,05:46:00,-0.000,0.0,0.0,0.0
02/01/2022,05:47:00,0.002,0.0,0.0,0.0
02/01/2022,05:48:00,0.001,0.0,0.0,0.0
02/01/2022,05:48:59,0.001,0.0,0.0,0.0
02/01/2022,05:50:00,0.002,0.0,0.0,0.0
02/01/2022,05:51:00,0.001,0.0,0.0,0.0
02/01/2022,05:52:09,0.001,0.0,0.0,0.0
02/01/2022,05:52:59,0.001,0.0,0.0,0.0
02/01/2022,05:54:00,0.001,0.0,0.0,0.0
02/01/2022,05:55:09,0.000,0.0,0.0,0.0
02/01/2022,05:55:59,0.001,0.0,0.0,0.0
02/01/2022,05:57:01,0.000,0.0,0.0,0.0
02/01/2022,05:58:01,0.001,0.0,0.0,0.0
02/01/2022,05:59:01,0.001,0.0,0.0,0.0
02/01/2022,06:00:00,0.000,0.0,0.0,0.0
02/01/2022,06:01:00,0.000,0.0,0.0,0.0
02/01/2022,06:02:00,0.001,0.0,0.0,0.0
02/01/2022,06:03:00,0.001,0.0,0.0,0.0
02/01/2022,06:04:01,0.001,0.0,0.0,0.0
02/01/2022,06:05:00,0.001,0.0,0.0,0.0
02/01/2022,06:06:00,-0.000,0.0,0.0,0.0
02/01/2022,06:07:00,0.002,0.0,0.0,0.0
02/01/2022,06:08:09,0.002,0.0,0.0,0.0
02/01/2022,06:09:01,0.001,0.0,0.0,0.0
02/01/2022,06:10:00,0.001,0.0,0.0,0.0
02/01/2022,06:11:00,0.001,0.0,0.0,0.0
02/01/2022,06:12:00,0.001,0.0,0.0,0.0
02/01/2022,06:13:00,0.001,0.0,0.0,0.0
02/01/2022,06:14:08,0.001,0.0,0.0,0.0
02/01/2022,06:15:01,0.001,0.0,0.0,0.0
02/01/2022,06:16:00,0.001,0.0,0.0,0.0
02/01/2022,06:17:08,0.001,0.0,0.0,0.0
02/01/2022,06:17:58,0.001,0.0,0.0,0.0
02/01/2022,06:19:01,0.002,0.0,0.0,0.0
02/01/2022,06:20:00,0.002,0.0,0.0,0.0
02/01/2022,06:21:00,0.001,0.0,0.0,0.0
02/01/2022,06:22:00,0.001,0.0,0.0,0.0
02/01/2022,06:23:01,0.001,0.0,0.0,0.0
02/01/2022,06:24:00,0.001,0.0,0.0,0.0
02/01/2022,06:25:00,0.001,0.0,0.0,0.0
02/01/2022,06:26:00,0.002,0.0,0.0,0.0
02/01/2022,06:27:00,0.002,0.0,0.0,0.0
02/01/2022,06:28:00,0.001,0.0,0.0,0.0
02/01/2022,06:29:01,0.002,0.0,0.0,0.0
02/01/2022,06:30:08,0.001,0.0,0.0,0.0
02/01/2022,06:31:00,0.001,0.0,0.0,0.0
02/01/2022,06:32:01,0.001,0.0,0.0,0.0
02/01/2022,06:33:08,0.001,0.0,0.0,0.0
02/01/2022,06:34:00,-0.000,0.0,0.0,0.0
02/01/2022,06:35:01,0.001,0.0,0.0,0.0
02/01/2022,06:36:08,0.002,0.0,0.0,0.0
02/01/2022,06:36:58,0.002,0.0,0.0,0.0
02/01/2022,06:38:00,0.000,0.0,0.0,0.0
02/01/2022,06:39:09,0.001,0.0,0.0,0.0
02/01/2022,06:40:01,0.001,0.0,0.0,0.0
02/01/2022,06:41:01,0.002,0.0,0.0,0.0
02/01/2022,06:42:01,0.001,0.0,0.0,0.0
02/01/2022,06:43:00,0.000,0.0,0.0,0.0
02/01/2022,06:44:01,0.002,0.0,0.0,0.0
02/01/2022,06:45:01,0.001,0.0,0.0,0.0
02/01/2022,06:46:01,0.001,0.0,0.0,0.0
02/01/2022,06:48:01,0.001,0.0,0.0,0.0
02/01/2022,06:49:09,0.000,0.0,0.0,0.0
02/01/2022,06:49:59,0.002,0.0,0.0,0.0
02/01/2022,06:50:59,0.001,0.0,0.0,0.0
02/01/2022,06:52:08,0.001,0.0,0.0,0.0
02/01/2022,06:53:00,0.002,0.0,0.0,0.0
02/01/2022,06:54:01,0.002,0.0,0.0,0.0
02/01/2022,06:55:08,0.001,0.0,0.0,0.0
02/01/2022,06:56:00,0.001,0.0,0.0,0.0
02/01/2022,06:57:01,0.001,0.0,0.0,0.0
02/01/2022,06:58:00,0.001,0.0,0.0,0.0
02/01/2022,06:59:00,0.002,0.0,0.0,0.0
02/01/2022,07:00:00,0.000,0.0,0.0,0.0
02/01/2022,07:01:00,0.001,0.0,0.0,0.0
02/01/2022,07:02:01,0.001,0.0,0.0,0.0
02/01/2022,07:02:59,0.001,0.0,0.0,0.0
02/01/2022,07:04:00,0.001,0.0,0.0,0.0
02/01/2022,07:05:00,0.001,0.0,0.0,0.0
02/01/2022,07:06:00,0.001,0.0,0.0,0.0
02/01/2022,07:07:00,0.001,0.0,0.0,0.0
02/01/2022,07:08:09,0.001,0.0,0.0,0.0
02/01/2022,07:08:59,0.001,0.0,0.0,0.0
02/01/2022,07:10:00,0.001,0.0,0.0,0.0
02/01/2022,07:11:09,0.002,0.0,0.0,0.0
02/01/2022,07:11:59,0.001,0.0,0.0,0.0
02/01/2022,07:13:00,0.001,0.0,0.0,0.0
02/01/2022,07:14:08,0.001,0.0,0.0,0.0
02/01/2022,07:15:00,0.001,0.0,0.0,0.0
02/01/2022,07:16:01,0.000,0.0,0.0,0.0
02/01/2022,07:17:09,0.001,0.0,0.0,0.0
02/01/2022,07:17:59,0.001,0.0,0.0,0.0
02/01/2022,07:19:00,0.000,0.0,0.0,0.0
02/01/2022,07:20:01,0.002,0.0,0.0,0.0
02/01/2022,07:21:00,0.001,0.0,0.0,0.0
02/01/2022,07:22:00,0.001,0.0,0.0,0.0
02/01/2022,07:23:00,0.001,0.0,0.0,0.0
02/01/2022,07:24:00,0.001,0.0,0.0,0.0
02/01/2022,07:25:01,0.001,0.0,0.0,0.0
02/01/2022,07:26:00,0.001,0.0,0.0,0.0
02/01/2022,07:27:01,0.001,0.0,0.0,0.0
02/01/2022,07:28:00,0.001,0.0,0.0,0.0
02/01/2022,07:29:00,0.000,0.0,0.0,0.0
02/01/2022,07:30:08,0.001,0.0,0.0,0.0
02/01/2022,07:31:00,0.001,0.0,0.0,0.0
02/01/2022,07:32:01,0.002,0.0,0.0,0.0
02/01/2022,07:33:00,0.001,0.0,0.0,0.0
02/01/2022,07:34:00,0.001,0.0,0.0,0.0
02/01/2022,07:35:00,0.000,0.0,0.0,0.0
02/01/2022,07:36:01,0.001,0.0,0.0,0.0
02/01/2022,07:37:00,0.002,0.0,0.0,0.0
02/01/2022,07:38:00,0.002,0.0,0.0,0.0
02/01/2022,07:39:01,0.001,0.0,0.0,0.0
02/01/2022,07:40:00,0.000,0.0,0.0,0.0
02/01/2022,07:41:01,0.001,0.0,0.0,0.0
02/01/2022,07:42:00,0.000,0.0,0.0,0.0
02/01/2022,07:43:01,0.000,0.0,0.0,0.0
02/01/2022,07:44:01,0.002,0.0,0.0,0.0
02/01/2022,07:45:01,0.001,0.0,0.0,0.0
02/01/2022,07:46:00,-0.000,0.0,0.0,0.0
02/01/2022,07:47:02,0.001,0.0,0.0,0.0
02/01/2022,07:48:01,0.001,0.0,0.0,0.0
02/01/2022,07:49:01,0.001,0.0,0.0,0.0
02/01/2022,07:50:01,0.001,0.0,0.0,0.0
02/01/2022,07:51:00,0.001,0.0,0.0,0.0
02/01/2022,07:52:09,0.002,0.0,0.0,0.0
02/01/2022,07:52:59,0.000,0.0,0.0,0.0
02/01/2022,07:54:01,0.002,0.0,0.0,0.0
02/01/2022,07:55:00,0.001,0.0,0.0,0.0
02/01/2022,07:56:09,0.001,0.0,0.0,0.0
02/01/2022,07:56:59,0.001,0.0,0.0,0.0
02/01/2022,07:58:09,0.001,0.0,0.0,0.0
02/01/2022,07:59:00,0.001,0.0,0.0,0.0
02/01/2022,08:00:00,0.001,0.0,0.0,0.0
02/01/2022,08:01:00,0.001,0.0,0.0,0.0
02/01/2022,08:02:01,0.001,0.0,0.0,0.0
02/01/2022,08:02:59,0.002,0.0,0.0,0.0
02/01/2022,08:04:01,0.002,0.0,0.0,0.0
02/01/2022,08:05:00,0.002,0.0,0.0,0.0
02/01/2022,08:06:00,0.002,0.0,0.0,0.0
02/01/2022,08:07:01,0.002,0.0,0.0,0.0
02/01/2022,08:08:01,0.002,0.0,0.0,0.0
02/01/2022,08:09:00,0.002,0.0,0.0,0.0
02/01/2022,08:10:01,0.002,0.0,0.0,0.0
02/01/2022,08:11:08,0.003,0.0,0.0,0.0
02/01/2022,08:12:00,0.003,0.0,0.0,0.0
02/01/2022,08:13:00,0.002,0.0,0.0,0.0
02/01/2022,08:14:08,0.002,0.0,0.0,0.0
02/01/2022,08:15:01,0.003,0.0,0.0,0.0
02/01/2022,08:16:01,0.003,0.0,0.0,0.0
02/01/2022,08:17:09,0.003,0.0,0.0,0.0
02/01/2022,08:18:01,0.004,0.0,0.0,0.0
02/01/2022,08:19:00,0.005,0.0,0.0,0.0
02/01/2022,08:20:09,0.004,0.0,0.0,0.0
02/01/2022,08:21:01,0.004,0.0,0.0,0.0
02/01/2022,08:22:00,0.005,0.0,0.0,0.0
02/01/2022,08:23:00,0.005,0.0,0.0,0.0
02/01/2022,08:24:00,0.005,0.0,0.0,0.0
02/01/2022,08:25:00,0.006,0.0,0.0,0.0
02/01/2022,08:26:01,0.005,0.0,0.0,0.0
02/01/2022,08:27:00,0.006,0.0,0.0,0.0
02/01/2022,08:28:01,0.005,0.0,0.0,0.0
02/01/2022,08:29:00,0.006,0.0,0.0,0.0
02/01/2022,08:30:09,0.006,0.0,0.0,0.0
02/01/2022,08:31:01,0.006,0.0,0.0,0.0
02/01/2022,08:32:01,0.007,0.0,0.0,0.0
02/01/2022,08:33:10,0.007,0.0,0.001,0.001
02/01/2022,08:35:01,0.007,0.0,0.001,0.0
02/01/2022,08:36:00,0.007,0.0,0.001,0.0
02/01/2022,08:37:00,0.008,0.0,0.001,0.0
02/01/2022,08:38:01,0.009,0.0,0.001,0.0
02/01/2022,08:39:01,0.008,0.0,0.001,0.0
02/01/2022,08:40:01,0.008,0.0,0.001,0.0
02/01/2022,08:41:01,0.008,0.0,0.001,0.0
02/01/2022,08:42:00,0.007,0.0,0.002,0.001
02/01/2022,08:43:01,0.008,0.0,0.002,0.0
02/01/2022,08:44:00,0.007,0.0,0.002,0.0
02/01/2022,08:45:01,0.007,0.0,0.002,0.0
02/01/2022,08:46:01,0.008,0.0,0.002,0.0
02/01/2022,08:47:00,0.008,0.0,0.002,0.0
02/01/2022,08:48:03,0.009,0.0,0.002,0.0
02/01/2022,08:49:00,0.009,0.0,0.003,0.001
02/01/2022,08:50:00,0.010,0.0,0.003,0.0
02/01/2022,08:50:51,0.010,0.0,0.003,0.0
02/01/2022,08:52:01,0.009,0.0,0.003,0.0
02/01/2022,08:53:00,0.008,0.0,0.003,0.0
02/01/2022,08:54:01,0.009,0.0,0.003,0.0
02/01/2022,08:55:08,0.011,0.0,0.003,0.0
02/01/2022,08:56:00,0.011,0.0,0.004,0.001
02/01/2022,08:57:01,0.011,0.0,0.004,0.0
02/01/2022,08:58:01,0.012,0.0,0.004,0.0
02/01/2022,09:00:01,0.009,0.0,0.004,0.0
02/01/2022,09:01:01,0.008,0.0,0.005,0.001
02/01/2022,09:02:01,0.010,0.0,0.005,0.0
02/01/2022,09:03:00,0.010,0.0,0.005,0.0
02/01/2022,09:04:00,0.012,0.0,0.005,0.0
02/01/2022,09:05:00,0.014,0.0,0.005,0.0
02/01/2022,09:06:01,0.015,0.0,0.005,0.0
02/01/2022,09:07:00,0.015,0.0,0.006,0.001
02/01/2022,09:08:09,0.015,0.0,0.006,0.0
02/01/2022,09:08:59,0.017,0.0,0.006,0.0
02/01/2022,09:10:01,0.018,0.0,0.007,0.001
02/01/2022,09:11:01,0.019,0.0,0.007,0.0
02/01/2022,09:12:00,0.021,0.0,0.007,0.0
02/01/2022,09:13:00,0.022,0.0,0.008,0.001
02/01/2022,09:14:00,0.023,0.0,0.008,0.0
02/01/2022,09:15:01,0.024,0.0,0.008,0.0
02/01/2022,09:16:01,0.026,0.0,0.009,0.001
02/01/2022,09:17:00,0.026,0.0,0.009,-0.0
02/01/2022,09:18:00,0.025,0.0,0.01,0.001
02/01/2022,09:19:00,0.027,0.0,0.01,0.0
02/01/2022,09:20:00,0.025,0.0,0.011,0.001
02/01/2022,09:21:00,0.026,0.0,0.011,-0.0
02/01/2022,09:22:01,0.023,0.0,0.011,-0.0
02/01/2022,09:23:01,0.023,0.0,0.012,0.001
02/01/2022,09:24:00,0.026,0.0,0.012,0.0
02/01/2022,09:25:01,0.028,0.0,0.013,0.001
02/01/2022,09:26:01,0.028,0.0,0.013,-0.0
02/01/2022,09:27:00,0.025,0.0,0.013,-0.0
02/01/2022,09:28:00,0.024,0.0,0.014,0.001
02/01/2022,09:29:09,0.025,0.0,0.014,0.0
02/01/2022,09:30:01,0.028,0.0,0.015,0.001
02/01/2022,09:31:01,0.030,0.0,0.015,0.0
02/01/2022,09:32:00,0.032,0.0,0.016,0.001
02/01/2022,09:33:00,0.034,0.0,0.016,0.0
02/01/2022,09:34:01,0.036,0.0,0.017,0.001
02/01/2022,09:35:01,0.036,0.0,0.017,0.0
02/01/2022,09:36:01,0.037,0.0,0.018,0.001
02/01/2022,09:37:00,0.037,0.0,0.019,0.001
02/01/2022,09:38:02,0.037,0.0,0.019,0.0
02/01/2022,09:39:00,0.038,0.0,0.02,0.001
02/01/2022,09:40:00,0.039,0.0,0.021,0.001
02/01/2022,09:41:00,0.039,0.0,0.021,0.0
02/01/2022,09:42:09,0.039,0.0,0.022,0.001
02/01/2022,09:42:59,0.040,0.0,0.022,-0.0
02/01/2022,09:44:01,0.039,0.0,0.023,0.001
02/01/2022,09:45:09,0.040,0.0,0.024,0.001
02/01/2022,09:46:09,0.042,0.0,0.025,0.001
02/01/2022,09:47:00,0.042,0.0,0.025,0.0
02/01/2022,09:48:01,0.041,0.0,0.026,0.001
02/01/2022,09:49:01,0.041,0.0,0.027,0.001
02/01/2022,09:50:01,0.044,0.0,0.027,-0.0
02/01/2022,09:51:01,0.045,0.0,0.028,0.001
02/01/2022,09:52:01,0.046,0.0,0.029,0.001
02/01/2022,09:53:01,0.045,0.0,0.03,0.001
02/01/2022,09:54:01,0.047,0.0,0.03,0.0
02/01/2022,09:54:52,0.047,0.0,0.031,0.001
02/01/2022,09:56:01,0.048,0.0,0.032,0.001
02/01/2022,09:57:00,0.049,0.0,0.033,0.001
02/01/2022,09:58:01,0.050,0.0,0.034,0.001
02/01/2022,09:59:01,0.051,0.0,0.034,0.0
02/01/2022,10:00:01,0.051,0.0,0.035,0.001
02/01/2022,10:01:00,0.052,0.0,0.036,0.001
02/01/2022,10:02:01,0.052,0.0,0.037,0.001
02/01/2022,10:03:00,0.053,0.0,0.038,0.001
02/01/2022,10:04:01,0.055,0.0,0.039,0.001
02/01/2022,10:05:00,0.054,0.0,0.04,0.001
02/01/2022,10:06:01,0.055,0.0,0.04,0.0
02/01/2022,10:07:00,0.056,0.0,0.041,0.001
02/01/2022,10:08:09,0.057,0.0,0.042,0.001
02/01/2022,10:08:59,0.058,0.0,0.043,0.001
02/01/2022,10:10:00,0.059,0.0,0.044,0.001
02/01/2022,10:11:00,0.059,0.0,0.045,0.001
02/01/2022,10:12:01,0.060,0.0,0.046,0.001
02/01/2022,10:13:01,0.061,0.0,0.047,0.001
02/01/2022,10:14:01,0.062,0.0,0.048,0.001
02/01/2022,10:15:00,0.063,0.0,0.049,0.001
02/01/2022,10:16:00,0.064,0.0,0.05,0.001
02/01/2022,10:17:01,0.062,0.0,0.051,0.001
02/01/2022,10:18:00,0.063,0.0,0.052,0.001
02/01/2022,10:19:01,0.063,0.0,0.054,0.002
02/01/2022,10:20:00,0.064,0.0,0.055,0.001
02/01/2022,10:21:01,0.063,0.0,0.056,0.001
02/01/2022,10:22:00,0.062,0.0,0.057,0.001
02/01/2022,10:23:01,0.062,0.0,0.058,0.001
02/01/2022,10:24:01,0.063,0.0,0.059,0.001
02/01/2022,10:25:01,0.061,0.0,0.06,0.001
02/01/2022,10:26:00,0.060,0.0,0.061,0.001
02/01/2022,10:27:00,0.057,0.0,0.062,0.001